Data for 05/20/2018

Time Sea-Level Adjusted Pressure Absolute Pressure Temperature Relative Humidity Dew Point   
(mb) (inHg) (mb) (inHg) (C) (F) (%) (C) (F)
00:05 1021 30.15 850 25.1 6.1 43 81 3.1 37.6
00:10 1021 30.15 850 25.1 6.1 43 81 3.1 37.6
00:15 1021 30.15 851 25.13 6.1 43 81 3.1 37.5
00:20 1021 30.15 851 25.13 6.1 43 81 3.1 37.6
00:25 1021 30.15 850 25.1 6.1 43 81 3.2 37.7
00:30 1021 30.15 850 25.1 6.1 42.9 81 3.1 37.7
00:35 1021 30.15 850 25.1 6.1 43 81 3.2 37.7
00:40 1021 30.15 850 25.1 6.1 43 81 3.2 37.7
00:45 1021 30.15 850 25.1 6.1 43 82 3.2 37.8
00:50 1021 30.15 850 25.1 6.1 43 82 3.2 37.8
00:55 1021 30.15 850 25.1 6.1 43 82 3.3 37.9
01:00 1021 30.15 850 25.1 6.1 42.9 82 3.3 37.9
01:05 1021 30.15 850 25.1 6.1 43 82 3.3 37.9
01:10 1021 30.15 850 25.1 6.1 43 82 3.3 38
01:15 1021 30.15 850 25.1 6.1 43 82 3.3 38
01:20 1021 30.15 850 25.1 6.1 43 83 3.4 38.1
01:25 1021 30.15 850 25.1 6.1 43 83 3.4 38.1
01:30 1021 30.15 850 25.1 6.1 43 83 3.4 38.1
01:35 1021 30.15 850 25.1 6.1 43 83 3.4 38
01:40 1021 30.15 850 25.1 6.1 43 83 3.4 38.1
01:45 1021 30.15 850 25.1 6.1 43 83 3.4 38.1
01:50 1021 30.15 850 25.1 6.1 43 83 3.4 38.1
01:55 1021 30.15 850 25.1 6.1 42.9 83 3.4 38
02:00 1021 30.15 850 25.1 6.1 43 83 3.4 38.1
02:05 1020 30.12 850 25.1 6.1 43 83 3.4 38.1
02:10 1021 30.15 850 25.1 6.1 43 83 3.4 38.1
02:15 1021 30.15 850 25.1 6.1 43 82 3.3 37.9
02:20 1021 30.15 850 25.1 6.2 43.1 82 3.3 37.9
02:25 1020 30.12 850 25.1 6.2 43.2 81 3.3 37.9
02:30 1020 30.12 850 25.1 6.2 43.2 81 3.1 37.7
02:35 1020 30.12 850 25.1 6.2 43.2 80 3.1 37.6
02:40 1020 30.12 850 25.1 6.3 43.4 80 3.1 37.6
02:45 1020 30.12 850 25.1 6.3 43.4 80 3.1 37.6
02:50 1020 30.12 850 25.1 6.4 43.4 79 3.1 37.5
02:55 1020 30.12 849 25.07 6.3 43.4 79 3.1 37.5
03:00 1020 30.12 849 25.07 6.3 43.3 80 3.1 37.6
03:05 1020 30.12 849 25.07 6.2 43.2 80 3.1 37.5
03:10 1020 30.12 849 25.07 6.2 43.2 80 3 37.4
03:15 1020 30.12 849 25.07 6.3 43.4 79 2.9 37.3
03:20 1020 30.12 849 25.07 6.3 43.3 79 2.9 37.3
03:25 1020 30.12 849 25.07 6.3 43.3 79 2.8 37.1
03:30 1020 30.12 849 25.07 6.3 43.3 78 2.8 37
03:35 1020 30.12 849 25.07 6.3 43.3 78 2.7 36.9
03:40 1020 30.12 849 25.07 6.2 43.2 78 2.6 36.7
03:45 1020 30.12 849 25.07 6.2 43.2 78 2.6 36.7
03:50 1020 30.12 849 25.07 6.2 43.2 78 2.6 36.7
03:55 1020 30.12 849 25.07 6.2 43.1 78 2.7 36.9
04:00 1020 30.12 849 25.07 6.1 43 79 2.8 37
04:05 1020 30.12 849 25.07 6.2 43.1 79 2.8 37
04:10 1020 30.12 849 25.07 6.2 43.1 79 2.8 37
04:15 1020 30.12 849 25.07 6.1 43.1 79 2.8 37
04:20 1020 30.12 849 25.07 6.1 43 79 2.8 37.1
04:25 1020 30.12 849 25.07 6.1 43.1 79 2.8 37.1
04:30 1020 30.12 849 25.07 6.1 43 80 2.9 37.2
04:35 1020 30.12 849 25.07 6.1 43 80 2.9 37.2
04:40 1020 30.12 849 25.07 6.2 43.1 79 2.9 37.2
04:45 1020 30.12 849 25.07 6.2 43.1 80 2.9 37.3
04:50 1020 30.12 849 25.07 6.1 43 79 2.8 37.1
04:55 1020 30.12 849 25.07 6 42.9 80 2.8 37.1
05:00 1020 30.12 849 25.07 5.9 42.7 80 2.8 37
05:05 1020 30.12 849 25.07 5.8 42.5 81 2.8 37
05:10 1020 30.12 849 25.07 5.8 42.5 81 2.8 37
05:15 1020 30.12 849 25.07 5.8 42.4 81 2.7 36.9
05:20 1020 30.12 849 25.07 5.7 42.3 80 2.6 36.7
05:25 1020 30.12 849 25.07 5.7 42.2 80 2.6 36.6
05:30 1020 30.12 849 25.07 5.5 42 81 2.5 36.6
05:35 1020 30.12 849 25.07 5.5 41.9 81 2.5 36.5
05:40 1020 30.12 849 25.07 5.4 41.8 81 2.5 36.5
05:45 1020 30.12 849 25.07 5.4 41.7 82 2.6 36.6
05:50 1020 30.12 849 25.07 5.4 41.8 82 2.6 36.7